Krvavec, Slovenia 16 day weather forecast

Slopes altitude range 1450 m - 1970m

Number of lifts: 11 Pistes: 30km

In some cases the lift and piste totals shown are for the ski domain (e.g. Three Valleys) rather than individual resort (e.g. Courchevel)

Overview

The 16 day weather forecast is fully updated 4 times every day.

    • Tue 19 MAR 2019
    • Tue 19
    • -3C 3C
    • Wed 20 MAR 2019
    • Wed 20
    • -4C 4C
    • Thu 21 MAR 2019
    • Thu 21
    • -2C 8C
    • Fri 22 MAR 2019
    • Fri 22
    • 1C 11C
    • Sat 23 MAR 2019
    • Sat 23
    • 3C 14C
    • Sun 24 MAR 2019
    • Sun 24
    • 4C 16C
    • Mon 25 MAR 2019
    • Mon 25
    • 5C 13C
    • Tue 26 MAR 2019
    • Tue 26
    • 0C 8C
    • Wed 27 MAR 2019
    • Wed 27
    • -2C 5C
    • Thu 28 MAR 2019
    • Thu 28
    • 0C 10C
    • Fri 29 MAR 2019
    • Fri 29
    • -1C 7C
    • Sat 30 MAR 2019
    • Sat 30
    • -4C 4C
    • Sun 31 MAR 2019
    • Sun 31
    • -2C 12C
    • Mon 01 APR 2019
    • Mon 01
    • 2C 8C
    • Tue 02 APR 2019
    • Tue 02
    • 1C 12C
    • Wed 03 APR 2019
    • Wed 03
    • 1C 10C

Date:

Time Type 0°C level Temp Chill Snow Cloud Speed Gust Dir Press
3:00 406m -4°C -4_3 1cm 100% 3mph 4mph 1025mB
6:00 482m -4°C -4_3 1cm 100% 3mph 3mph 1025mB
9:00 978m -3°C -3_4 1cm 100% 4mph 7mph 1026mB
12:00 1141m 3°C 3_4 1cm 98% 4mph 7mph 1025mB
15:00 1176m 3°C 3_3 1cm 81% 3mph 5mph 1025mB
18:00 1038m 3°C 3_3 1cm 81% 3mph 4mph 1028mB
21:00 716m -2°C -2_4 1cm 72% 4mph 5mph 1030mB
0:00 364m -4°C -4_4 1cm 66% 4mph 5mph 1032mB
3:00 120m -5°C -5_3 0cm 12% 3mph 4mph 1033mB
6:00 293m -6°C -6_3 0cm 6% 3mph 4mph 1034mB
9:00 1054m -4°C -4_4 0cm 0% 4mph 7mph 1034mB
12:00 1276m 4°C 4_4 0cm 0% 4mph 7mph 1033mB
15:00 1409m 5°C 5_3 0cm 0% 3mph 6mph 1032mB
18:00 1002m 5°C 5_2 0cm 0% 2mph 3mph 1034mB
21:00 512m -3°C -3_3 0cm 0% 3mph 3mph 1037mB
0:00 371m -4°C -4_3 0cm 0% 3mph 3mph 1037mB
3:00 263m -4°C -4_2 0cm 0% 2mph 3mph 1036mB
6:00 503m -5°C -5_2 0cm 0% 2mph 2mph 1036mB
9:00 1250m -2°C -2_3 0cm 0% 3mph 4mph 1035mB
12:00 1583m 8°C 8_3 0cm 0% 3mph 4mph 1033mB
15:00 2096m 8°C 8_3 0cm 18% 3mph 4mph 1031mB
18:00 1770m 8°C 8_2 0cm 34% 2mph 3mph 1033mB
21:00 1640m -1°C -1_2 0cm 59% 2mph 3mph 1035mB
0:00 1600m -2°C -2_1 0cm 39% 1mph 1mph 1035mB
3:00 1297m -2°C -2_1 0cm 0% 1mph 1mph 1034mB
6:00 1700m -2°C -2_1 0cm 19% 1mph 1mph 1034mB
9:00 2928m 1°C 1_2 0cm 43% 2mph 4mph 1032mB
12:00 2988m 11°C 11_3 0cm 33% 3mph 4mph 1030mB
15:00 3075m 11°C 11_3 0cm 55% 3mph 4mph 1029mB
18:00 3099m 11°C 11_3 0cm 51% 3mph 3mph 1031mB
21:00 2307m 2°C 2_2 0cm 34% 2mph 2mph 1032mB
0:00 1940m 1°C 1_1 0cm 17% 1mph 1mph 1031mB
3:00 1882m 1°C 1_1 0cm 0% 1mph 2mph 1031mB
6:00 3103m 0°C 0_1 0cm 0% 1mph 2mph 1030mB
9:00 3102m 3°C 3_2 0cm 0% 2mph 4mph 1028mB
12:00 3090m 14°C 14_3 0cm 0% 3mph 4mph 1027mB
15:00 3048m 14°C 14_3 0cm 0% 3mph 3mph 1025mB
18:00 2997m 14°C 14_3 0cm 0% 3mph 4mph 1026mB
21:00 3003m 4°C 4_2 0cm 0% 2mph 3mph 1027mB
0:00 2967m 3°C 3_1 0cm 0% 1mph 2mph 1026mB
3:00 2165m 2°C 2_2 0cm 0% 2mph 2mph 1025mB
6:00 2891m 1°C 1_2 0cm 0% 2mph 2mph 1025mB
9:00 2856m 4°C 4_3 0cm 0% 3mph 4mph 1024mB
12:00 2797m 16°C 16_3 0cm 0% 3mph 4mph 1022mB
15:00 2662m 16°C 16_3 0cm 0% 3mph 3mph 1020mB
18:00 2623m 16°C 16_2 0cm 0% 2mph 3mph 1021mB
21:00 2508m 6°C 6_2 0cm 7% 2mph 3mph 1022mB
0:00 2375m 5°C 5_3 0cm 26% 3mph 4mph 1022mB
3:00 2243m 4°C 4_3 0cm 8% 3mph 4mph 1022mB
6:00 2135m 4°C 4_3 0cm 29% 3mph 4mph 1023mB
9:00 1959m 5°C 5_3 0cm 70% 3mph 5mph 1023mB
12:00 2041m 13°C 13_1 0cm 69% 1mph 3mph 1023mB
15:00 2076m 13°C 13_3 0cm 73% 3mph 4mph 1022mB
18:00 1866m 13°C 13_3 0cm 68% 3mph 4mph 1023mB
21:00 1661m 4°C 4_1 0cm 58% 1mph 2mph 1026mB
0:00 1442m 3°C 3_2 2cm 62% 2mph 3mph 1027mB
3:00 1242m 1°C 1_3 1cm 72% 3mph 4mph 1028mB
6:00 1149m 0°C 0_2 1cm 69% 2mph 3mph 1028mB
9:00 1445m 0°C 0_5 0cm 2% 5mph 10mph 1027mB
12:00 1719m 8°C 8_9 0cm 12% 9mph 19mph 1025mB
15:00 1666m 9°C 9_10 0cm 92% 10mph 25mph 1024mB
18:00 1498m 9°C 9_5 0cm 71% 5mph 6mph 1028mB
21:00 948m -1°C -1_3 0cm 1% 3mph 4mph 1031mB
0:00 1024m -1°C -1_2 1cm 41% 2mph 3mph 1033mB
3:00 823m -1°C -1_3 1cm 100% 3mph 4mph 1033mB
6:00 754m -2°C -2_2 2cm 100% 2mph 4mph 1034mB
9:00 1044m -2°C -2_4 1cm 98% 4mph 4mph 1033mB
12:00 1388m 5°C 5_3 1cm 97% 3mph 8mph 1032mB
15:00 1573m 6°C 6_7 0cm 44% 7mph 11mph 1031mB
18:00 903m 6°C 6_3 0cm 22% 3mph 3mph 1032mB
21:00 623m -3°C -3_2 0cm 0% 2mph 3mph 1033mB
0:00 573m -3°C -3_3 0cm 0% 3mph 4mph 1033mB
3:00 585m -3°C -3_4 0cm 34% 4mph 5mph 1031mB
6:00 933m -3°C -3_5 0cm 30% 5mph 8mph 1030mB
9:00 1659m 0°C 0_5 0cm 0% 5mph 8mph 1028mB
12:00 1959m 10°C 10_7 0cm 0% 7mph 14mph 1026mB
15:00 1915m 11°C 11_7 0cm 1% 7mph 12mph 1025mB
18:00 1741m 11°C 11_4 0cm 3% 4mph 5mph 1027mB
Morning 0mm 0 659m -3°C -3_5 0cm 25% 5mph 9mph 1032mB
Afternoon 0mm 0 689m 7°C 7_4 0cm 2% 4mph 5mph 1029mB
Morning 0mm 0 227m -6°C -6_4 0cm 0% 4mph 8mph 1030mB
Afternoon 0mm 0 528m 4°C 4_5 0cm 0% 5mph 11mph 1026mB
Morning 0mm 0 519m -5°C -5_5 0cm 4% 5mph 7mph 1023mB
Afternoon 0.333333mm 0 2073m 12°C 12_4 0cm 44% 4mph 5mph 1018mB
Morning 0mm 0 1623m 1°C 1_3 0cm 88% 3mph 6mph 1022mB
Afternoon 0mm 0.625 1575m 8°C 8_2 0cm 86% 2mph 3mph 1024mB
Morning 0mm 0.0625 914m -2°C -2_3 0cm 43% 3mph 3mph 1027mB
Afternoon 0mm 0 1648m 12°C 12_3 0cm 19% 3mph 4mph 1025mB
Morning 0mm 0 916m -2°C -2_5 0cm 1% 5mph 8mph 1029mB
Afternoon 0mm 0 1499m 10°C 10_4 0cm 0% 4mph 5mph 1030mB

16 day outlook at a glance

Forecast issued: 18/03/2019 23:31:26

Chat

Your comments and questions. In a resort? Let us know what it's like!


Characters left 250

For terms and conditions see Readers Comments on the Cookie and privacy policy page.